Regional Weather Roundup
Issued by NWS

Home | Current Version | Previous Version | Graphics & Text | Print | Product List | Glossary On
Versions: 1 2 3 4 5 6 7 8 9 10 11 12 13 14 15 16 17 18 19 20 21 22 23 24 25 26 27 28 29 30 31 32 33 34 35 36 37 38 39 40 41 42 43 44 45 46 47 48 49 50
000
ASUS45 KBOU 261007
RWRCO

WEATHER ROUNDUP FOR COLORADO
NATIONAL WEATHER SERVICE DENVER/BOULDER CO
400 AM MDT SAT JUL 26 2014

NOTE: "FAIR" INDICATES FEW OR NO CLOUDS BELOW 12000 FEET WITH NO
SIGNIFICANT WEATHER AND/OR OBSTRUCTIONS TO VISIBILITY.

COZ001>005-013-030-031-261100-
...NORTHWEST COLORADO...

CITY           SKY/WX    TMP DP  RH WIND       PRES   REMARKS
CRAIG          MOCLDY    59  51  75 E6        30.21S
HAYDEN         MOCLDY    59  46  63 E10       30.24S
MEEKER         MOCLDY    60  50  69 NE5       30.23S
MOUNT WERNER   NOT AVBL
STEAMBOAT SPGS MOCLDY    52  48  84 NW3       30.27S
WALDEN         CLEAR     50  43  76 E7        30.35R
$$

COZ006>008-011-261100-
...WEST CENTRAL VALLEYS...

CITY           SKY/WX    TMP DP  RH WIND       PRES   REMARKS
GRAND JUNCTION MOCLDY    65  54  67 E3        30.10S
MONTROSE       MOCLDY    67  51  56 SE10      30.21S
EAGLE          PTCLDY    54  48  82 E5        30.32S
RIFLE          MOCLDY    65  50  58 SE5       30.18F
DELTA          MOCLDY    69  51  53 E5        30.16S
NUCLA          MOCLDY    64  46  52 SE3       30.23S
$$

COZ017>023-064>068-261100-
...SOUTHWEST COLORADO...

CITY           SKY/WX    TMP DP  RH WIND       PRES   REMARKS
DURANGO        PTCLDY    58  43  57 CALM      30.23S
CORTEZ         CLEAR     59  47  64 E5        30.20S
PAGOSA SPRINGS PTCLDY    60  46  59 CALM      30.33S
TELLURIDE      PTCLDY    55  46  71 SE8       30.46F
WOLF CREEK PAS NOT AVBL
$$

COZ009-010-012-014-032>034-037-058>063-261100-
...CENTRAL COLORADO...

CITY           SKY/WX    TMP DP  RH WIND       PRES   REMARKS
ASPEN          CLEAR     53  45  74 SW6       30.36F
BUENA VISTA    CLEAR     54  47  75 NW9       30.37F
COPPER MTN     CLEAR     54  37  54 W20       30.68F
BERTHOUD PASS  FAIR      45  32  61 W16G24    30.71S
COTTONWOOD PAS CLEAR     61  43  51 W7        30.50S
GUNNISON       CLEAR     50  45  81 CALM      30.41S
KREMMLING      PTCLDY    50  45  81 W3        30.37S
LEADVILLE      CLEAR     42  40  92 CALM      30.51S
MONARCH PASS   CLEAR     50  37  62 NW12      30.77S
SALIDA         CLEAR    N/A N/A N/A W6        30.42S
SUNLIGHT       PTCLDY    55  43  62 CALM      30.59S
WILKERSON PASS NOT AVBL
$$

COZ069>075-261100-
...SAN LUIS VALLEY/SANGRE DE CRISTO MOUNTAINS...

CITY           SKY/WX    TMP DP  RH WIND       PRES   REMARKS
ALAMOSA        CLEAR     51  46  83 CALM      30.32S
LA VETA PASS   CLEAR     54  41  62 W5        30.50F
SAGUACHE       CLEAR     55  48  76 NW10      30.36S
$$

COZ035-036-038>040-261100-
...NORTHERN COLORADO FRONT RANGE...

CITY           SKY/WX    TMP DP  RH WIND       PRES   REMARKS
DENVER INTL AP PTCLDY    67  50  54 SW13      30.09R
DMNS CITY PARK   N/A     67  50  55 S7        30.08S
AURORA         PTCLDY    65  51  60 S7        30.12R
FRONT RANGE AP NOT AVBL
ERIE MUNI ARPT CLEAR     60  50  68 CALM      30.06R
BOULDER MUN AP CLEAR     72  43  35 NE5       30.06S
CENTENNIAL     PTCLDY    64  48  56 SW9       30.13R
BROOMFIELD     CLEAR     75  43  31 NW3       30.11R
FORT COLLINS   CLEAR     63  52  67 SE3       30.06S
LONGMONT       CLEAR     63  52  66 S3        30.06S
$$

COZ041-046-047-076>085-087-088-261100-
...PIKES PEAK/PALMER DIVIDE AND SOUTHERN FOOTHILLS...

CITY           SKY/WX    TMP DP  RH WIND       PRES   REMARKS
COLO. SPRINGS  PTCLDY    60  50  69 N9        30.17S
A. F. ACADEMY  CLEAR     59  46  63 VRB2      30.20R
ELLICOTT       CLEAR     58  51  78 CALM      30.15S
FALCON         CLEAR     61  48  63 NW5       30.23R
FORT CARSON    CLEAR     61  51  70 N8        30.14R
LIMON          CLEAR     54  52  93 N5        30.10S
MONUMENT HILL  NOT AVBL
TRINIDAD       CLEAR     65  52  62 SW17      30.14F
$$

COZ042>045-048>051-090-091-261100-
...NORTHEAST COLORADO...

CITY           SKY/WX    TMP DP  RH WIND       PRES   REMARKS
GREELEY ARPT   CLEAR     57  50  77 CALM      30.04S
AKRON          CLEAR     65  49  56 SW5       30.04R
BURLINGTON     PTCLDY    67  60  78 W6        29.99F
WRAY             N/A     71  59  66 SW9       29.95S
STERLING       CLEAR     63  59  88 CALM      29.98S
HOLYOKE        PTCLDY    64  61  88 W6        29.95S
FORT MORGAN    CLEAR     63  53  71 CALM      30.04R
$$

COZ086-089-092>099-261100-
...SOUTHEAST COLORADO...

CITY           SKY/WX    TMP DP  RH WIND       PRES   REMARKS
PUEBLO         CLEAR     65  60  84 NW6       30.05F
LA JUNTA       PTCLDY    70  58  65 W15       30.02S
LAMAR          PTCLDY    68  63  84 S5        29.96F
SPRINGFIELD      N/A     66  58  75 NW7       30.02F
$$


USA.gov is the U.S. government's official web portal to all federal, state and local government web resources and services.